Tracking 29892 objects as of 21-Nov-2024
HD Live streaming from Space Station
objects crossing your sky now

STARLINK-30827

Track STARLINK-30827 now!
10-day predictions
STARLINK-30827 is classified as:


NORAD ID: 58195
Int'l Code: 2023-167W
Perigee: 565.5 km
Apogee: 567.0 km
Inclination: 43.0 °
Period: 95.8 minutes
Semi major axis: 6937 km
RCS: Unknown
Launch date: October 30, 2023
Source: United States (US)
Launch site: AIR FORCE EASTERN TEST RANGE (AFETR)
Your satellite tracking list
Your tracking list is empty




NASA's NSSDC Master Catalog

Two Line Element Set (TLE):
1 58195U 23167W   24325.95370819 -.00000043  00000-0  11915-4 0  9994
2 58195  43.0019 200.0339 0001092 265.2202  94.8516 15.02535411 59582
Source of the keplerian elements: AFSPC